Location: Bruderhein
(53.8035°N, 112.9265°W)
Time: 02:51:04
(UTC+00:00)

KKS-1 - Pass Details

Date: 08 April 2023
Orbit: 633 x 644 km, 98.2° (Epoch: 31 May)

Event Time Altitude Azimuth Distance (km) Brightness Sun altitude
Rises 05:31:19 0° 21° (NNE) 2,945 ? -23.9°
Reaches altitude 10° 05:33:44 10° 32° (NNE) 2,032 ? -24.1°
Enters shadow 05:36:15 26° 60° (ENE) 1,271 ? -24.2°
